Back to catalog

STARLINK-6200

AliveCommunicationsVLEO
NORAD 56897·PAYLOAD·🇺🇸 United States

Launched Jun 12, 2023 from Cape Canaveral Space Force Station

Loading…

Next Passes (next 24 hours)

TLE

FreshSource: CelesTrak SupGP

Epoch: Sep 14, 2026, 22:00 UTC

1 56897C 23083X   26257.91715278  .00021218  00000+0  76914-3 0  2573
2 56897  43.0029 100.2258 0001496 272.1723 210.8076 15.27541638    14

Track STARLINK-6200 in real time with AllMySat

Download on the App Store